{"data":{"norad_id":5398,"intl_designator":"1971-067E","name":"RIGIDSPHERE 2 (LCS 4)","alt_names":[],"object_type":"PAYLOAD","status":"ACTIVE","operator":null,"country":"US","launch_date":"1971-08-07","launch_site_code":"AFWTR","launch_vehicle":null,"mission":null,"orbit_class":"UNKNOWN","rcs_meters":0.9548,"size_class":null,"mass_kg":null,"dimensions":null,"purposes":["military"],"wikipedia_slug":null,"has_3d_model":false,"image_url":null,"decayed_at":null,"tle_current":{"epoch":"2026-05-25T03:45:34.229952Z","epoch_age_seconds":57522,"freshness":"FRESH","line1":"1 05398U 71067E   26145.15664618  .00000500  00000+0  15714-3 0  9996","line2":"2 05398  87.6216 345.2091 0058150 310.8506  48.7660 14.37839051870572","mean_motion":14.37839051,"eccentricity":0.005815,"inclination_deg":87.6216,"raan_deg":345.2091,"arg_perigee_deg":310.8506,"mean_anomaly_deg":48.766,"bstar":0.00015714,"rev_number":87057,"period_min":100.15029143898,"perigee_km":724.10606227796,"apogee_km":807.18827214261,"semimajor_km":7143.7841672103,"source":"CELESTRAK","updated_at":"2026-05-25T13:38:25.286328Z"}}}